Epoch 2011 Mar. 20.0 TT = JDT 2455640.5
T 2011 Mar. 10.67735 TT MPC
q 2.3604259 (2000.0) P Q
n 0.17500980 Peri. 325.30765 +0.95646657 -0.29132724
a 3.1653943 Node 51.63920 +0.27251323 +0.87030042
e 0.2543027 Incl. 1.26601 +0.10444252 +0.39712166
P 5.63